| time (UTC) | temp F | wind direction | speed knots | gust knots | rain 1hr in | rain 24hr in | rain mn in | humidity % | barometer mb |
| 20260906090054 | 61 | 0 | 0.9 | 2.6 | 0.00 | 1.04 | 0.00 | 91 | 1022.9 |
| 20260906085536 | 61 | 0 | 0.9 | 3.5 | 0.00 | 1.04 | 0.00 | 91 | 1022.8 |
| 20260906085036 | 61 | 264 | 0.9 | 3.5 | 0.00 | 1.04 | 0.00 | 91 | 1022.8 |
| 20260906084547 | 61 | 259 | 1.7 | 2.6 | 0.00 | 1.04 | 0.00 | 91 | 1022.8 |
| 20260906084038 | 61 | 268 | 0.9 | 2.6 | 0.00 | 1.04 | 0.00 | 92 | 1022.8 |
| 20260906083535 | 60 | 268 | 0.9 | 2.6 | 0.00 | 1.04 | 0.00 | 93 | 1022.8 |
| 20260906083059 | 60 | 0 | 0.0 | 1.7 | 0.00 | 1.04 | 0.00 | 93 | 1022.9 |
| 20260906082534 | 60 | 268 | 0.0 | 1.7 | 0.00 | 1.04 | 0.00 | 93 | 1022.8 |
| 20260906082034 | 61 | 268 | 0.0 | 1.7 | 0.00 | 1.04 | 0.00 | 94 | 1022.8 |
| 20260906081558 | 61 | 268 | 0.0 | 1.7 | 0.00 | 1.04 | 0.00 | 94 | 1022.8 |
| 20260906081038 | 61 | 268 | 0.0 | 1.7 | 0.00 | 1.04 | 0.00 | 93 | 1022.9 |
| 20260906080539 | 61 | 268 | 0.9 | 2.6 | 0.00 | 1.04 | 0.00 | 93 | 1022.9 |
| 20260906080056 | 61 | 262 | 0.9 | 2.6 | 0.00 | 1.04 | 0.00 | 94 | 1022.9 |
| 20260906075535 | 61 | 262 | 0.9 | 2.6 | 0.00 | 1.04 | 0.00 | 94 | 1022.9 |
| 20260906075036 | 61 | 312 | 0.9 | 1.7 | 0.00 | 1.04 | 0.00 | 95 | 1022.9 |
| 20260906074548 | 60 | 312 | 0.0 | 1.7 | 0.00 | 1.04 | 0.00 | 93 | 1022.9 |
| 20260906074035 | 60 | 312 | 0.0 | 0.9 | 0.00 | 1.04 | 0.00 | 93 | 1022.9 |
| 20260906073535 | 61 | 312 | 0.0 | 0.9 | 0.00 | 1.04 | 0.00 | 93 | 1022.9 |
| 20260906073059 | 61 | 0 | 0.0 | 0.0 | 0.00 | 1.04 | 0.00 | 93 | 1022.8 |
| 20260906072535 | 61 | 0 | 0.0 | 0.9 | 0.00 | 1.04 | 0.00 | 92 | 1022.8 |
| 20260906072035 | 61 | 0 | 0.0 | 0.9 | 0.00 | 1.04 | 0.00 | 92 | 1023.0 |
| 20260906071556 | 61 | 0 | 0.0 | 0.9 | 0.00 | 1.04 | 0.00 | 92 | 1023.0 |
| 20260906071035 | 60 | 0 | 0.0 | 0.9 | 0.00 | 1.04 | 0.00 | 92 | 1023.0 |
| 20260906070538 | 60 | 0 | 0.0 | 0.0 | 0.00 | 1.04 | 0.00 | 91 | 1023.1 |
| 20260906070055 | 60 | 0 | 0.0 | 0.0 | 0.00 | 1.04 | 0.00 | 91 | 1023.0 |
| 20260906065535 | 60 | 0 | 0.0 | 0.0 | 0.00 | 1.04 | 0.00 | 92 | 1023.0 |
| 20260906065038 | 60 | 0 | 0.0 | 0.9 | 0.00 | 1.04 | 0.00 | 91 | 1023.1 |
| 20260906064548 | 60 | 0 | 0.0 | 0.9 | 0.00 | 1.04 | 0.00 | 92 | 1023.1 |
| 20260906064035 | 60 | 0 | 0.0 | 0.9 | 0.00 | 1.04 | 0.00 | 93 | 1023.3 |
| 20260906063534 | 60 | 0 | 0.0 | 0.9 | 0.00 | 1.04 | 0.00 | 93 | 1023.3 |
| 20260906063058 | 60 | 0 | 0.0 | 0.9 | 0.00 | 1.04 | 0.00 | 94 | 1023.2 |
| 20260906062534 | 60 | 0 | 0.0 | 0.0 | 0.00 | 1.04 | 0.00 | 95 | 1023.2 |
| 20260906062035 | 60 | 0 | 0.0 | 0.0 | 0.00 | 1.04 | 0.00 | 95 | 1023.2 |
| 20260906061608 | 61 | 0 | 0.0 | 0.0 | 0.00 | 1.04 | 0.00 | 96 | 1023.2 |
| 20260906061041 | 61 | 0 | 0.0 | 0.0 | 0.00 | 1.04 | 0.00 | 96 | 1023.3 |
| 20260906060538 | 61 | 0 | 0.0 | 0.0 | 0.00 | 1.04 | 0.00 | 96 | 1023.4 |
| 20260906060100 | 61 | 0 | 0.0 | 0.0 | 0.00 | 1.04 | 0.00 | 97 | 1023.4 |
| 20260906055535 | 61 | 0 | 0.0 | 0.0 | 0.00 | 1.04 | 0.00 | 97 | 1023.5 |
| 20260906055035 | 61 | 0 | 0.0 | 0.0 | 0.00 | 1.04 | 0.00 | 97 | 1023.6 |
| 20260906054549 | 61 | 0 | 0.0 | 0.0 | 0.00 | 1.04 | 0.00 | 96 | 1023.6 |
| 20260906054035 | 61 | 0 | 0.0 | 0.0 | 0.00 | 1.04 | 0.00 | 96 | 1023.8 |
| 20260906053537 | 61 | 0 | 0.0 | 0.0 | 0.00 | 1.04 | 0.00 | 96 | 1023.8 |
| 20260906053048 | 61 | 0 | 0.0 | 0.0 | 0.00 | 1.04 | 0.00 | 96 | 1023.9 |
| 20260906052537 | 61 | 0 | 0.0 | 0.0 | 0.00 | 1.04 | 0.00 | 96 | 1024.0 |
| 20260906052037 | 61 | 0 | 0.0 | 0.0 | 0.00 | 1.04 | 0.00 | 96 | 1024.1 |
| 20260906051604 | 62 | 0 | 0.0 | 0.0 | 0.00 | 1.04 | 0.00 | 97 | 1024.0 |
| 20260906051036 | 62 | 0 | 0.0 | 0.0 | 0.00 | 1.04 | 0.00 | 96 | 1024.1 |
| 20260906050536 | 62 | 0 | 0.0 | 0.9 | 0.00 | 1.04 | 0.00 | 96 | 1024.2 |
| 20260906050056 | 62 | 0 | 0.0 | 0.9 | 0.00 | 1.04 | 0.00 | 96 | 1024.2 |
| 20260906045537 | 62 | 0 | 0.0 | 1.7 | 0.00 | 1.04 | 0.00 | 97 | 1024.2 |
| 20260906045037 | 62 | 0 | 0.0 | 1.7 | 0.00 | 1.04 | 0.00 | 96 | 1024.2 |
| 20260906044548 | 62 | 0 | 0.0 | 1.7 | 0.00 | 1.04 | 0.00 | 96 | 1024.2 |
| 20260906044036 | 62 | 312 | 0.0 | 1.7 | 0.00 | 1.04 | 0.00 | 96 | 1024.4 |
| 20260906043536 | 62 | 0 | 0.0 | 1.7 | 0.00 | 1.04 | 0.00 | 96 | 1024.4 |
| 20260906043056 | 63 | 0 | 0.0 | 1.7 | 0.00 | 1.04 | 0.00 | 96 | 1024.4 |
| 20260906042536 | 63 | 0 | 0.0 | 1.7 | 0.00 | 1.04 | 0.00 | 96 | 1024.2 |
| 20260906042036 | 63 | 5 | 0.0 | 1.7 | 0.00 | 1.04 | 0.00 | 96 | 1024.2 |
| 20260906041556 | 63 | 0 | 0.0 | 1.7 | 0.00 | 1.04 | 0.00 | 96 | 1024.4 |
| 20260906041038 | 63 | 0 | 0.0 | 2.6 | 0.00 | 1.04 | 0.00 | 96 | 1024.4 |
| 20260906040536 | 63 | 0 | 0.0 | 3.5 | 0.00 | 1.04 | 0.00 | 96 | 1024.4 |
| 20260906040053 | 63 | 130 | 0.0 | 3.5 | 0.00 | 1.04 | 0.00 | 96 | 1024.4 |
| 20260906035539 | 62 | 336 | 0.9 | 2.6 | 0.00 | 1.04 | 1.04 | 96 | 1024.4 |
| 20260906035037 | 62 | 0 | 0.0 | 2.6 | 0.00 | 1.04 | 1.04 | 96 | 1024.3 |
| 20260906034605 | 62 | 0 | 0.0 | 4.3 | 0.00 | 1.04 | 1.04 | 96 | 1024.2 |
| 20260906034036 | 62 | 0 | 0.0 | 4.3 | 0.00 | 1.04 | 1.04 | 96 | 1024.2 |
| 20260906033536 | 62 | 329 | 0.0 | 4.3 | 0.00 | 1.04 | 1.04 | 96 | 1024.4 |
| 20260906033058 | 62 | 0 | 0.0 | 0.9 | 0.00 | 1.04 | 1.04 | 96 | 1024.5 |
| 20260906032537 | 62 | 0 | 0.0 | 0.9 | 0.00 | 1.04 | 1.04 | 96 | 1024.5 |
| 20260906032036 | 62 | 0 | 0.0 | 1.7 | 0.00 | 1.04 | 1.04 | 96 | 1024.5 |
| 20260906031555 | 62 | 0 | 0.0 | 1.7 | 0.00 | 1.04 | 1.04 | 96 | 1024.5 |
| 20260906031037 | 62 | 344 | 0.0 | 0.9 | 0.00 | 1.04 | 1.04 | 96 | 1024.5 |
| 20260906030536 | 62 | 0 | 0.0 | 1.7 | 0.00 | 1.04 | 1.04 | 95 | 1024.4 |
| 20260906030100 | 62 | 0 | 0.0 | 1.7 | 0.00 | 1.04 | 1.04 | 95 | 1024.5 |
| 20260906025537 | 63 | 0 | 0.0 | 1.7 | 0.00 | 1.04 | 1.04 | 95 | 1024.4 |
| 20260906025037 | 63 | 0 | 0.0 | 1.7 | 0.00 | 1.04 | 1.04 | 95 | 1024.4 |
| 20260906024559 | 63 | 0 | 0.0 | 1.7 | 0.00 | 1.04 | 1.04 | 95 | 1024.3 |
| 20260906024039 | 63 | 267 | 0.0 | 2.6 | 0.00 | 1.04 | 1.04 | 95 | 1024.2 |
| 20260906023537 | 63 | 0 | 0.0 | 2.6 | 0.00 | 1.04 | 1.04 | 95 | 1024.2 |
| 20260906023103 | 63 | 352 | 0.0 | 2.6 | 0.00 | 1.04 | 1.04 | 95 | 1024.2 |
| 20260906022537 | 63 | 0 | 0.0 | 2.6 | 0.00 | 1.04 | 1.04 | 94 | 1024.3 |
| 20260906022039 | 63 | 0 | 0.0 | 5.2 | 0.00 | 1.04 | 1.04 | 94 | 1024.2 |
| 20260906021558 | 63 | 108 | 0.9 | 5.2 | 0.00 | 1.04 | 1.04 | 94 | 1024.0 |
| 20260906021037 | 63 | 330 | 0.9 | 5.2 | 0.00 | 1.04 | 1.04 | 94 | 1023.9 |
| 20260906020537 | 63 | 157 | 0.9 | 2.6 | 0.00 | 1.04 | 1.04 | 94 | 1024.0 |
| 20260906020057 | 63 | 209 | 0.9 | 2.6 | 0.00 | 1.04 | 1.04 | 94 | 1023.8 |
| 20260906015537 | 63 | 153 | 0.0 | 2.6 | 0.00 | 1.04 | 1.04 | 94 | 1023.7 |
| 20260906015036 | 63 | 165 | 0.0 | 1.7 | 0.00 | 1.04 | 1.04 | 93 | 1023.9 |
| 20260906014555 | 63 | 155 | 0.0 | 4.3 | 0.00 | 1.04 | 1.04 | 93 | 1023.9 |
| 20260906014038 | 63 | 123 | 0.0 | 4.3 | 0.00 | 1.04 | 1.04 | 93 | 1024.0 |
| 20260906013537 | 63 | 215 | 0.9 | 2.6 | 0.00 | 1.04 | 1.04 | 93 | 1024.0 |
| 20260906013100 | 63 | 0 | 0.0 | 2.6 | 0.00 | 1.04 | 1.04 | 93 | 1023.9 |
| 20260906012539 | 64 | 0 | 0.0 | 3.5 | 0.00 | 1.04 | 1.04 | 93 | 1023.8 |
| 20260906012038 | 64 | 137 | 0.9 | 8.7 | 0.00 | 1.04 | 1.04 | 92 | 1023.6 |
| 20260906011606 | 64 | 150 | 0.9 | 8.7 | 0.00 | 1.04 | 1.04 | 92 | 1023.7 |
| 20260906011039 | 63 | 333 | 1.7 | 5.2 | 0.00 | 1.04 | 1.04 | 93 | 1023.6 |
| 20260906010537 | 63 | 0 | 1.7 | 5.2 | 0.00 | 1.04 | 1.04 | 94 | 1023.6 |
| 20260906010059 | 63 | 340 | 0.9 | 3.5 | 0.00 | 1.04 | 1.04 | 94 | 1023.8 |
| 20260906005536 | 63 | 0 | 0.9 | 3.5 | 0.00 | 1.04 | 1.04 | 95 | 1023.9 |
| 20260906005036 | 63 | 172 | 0.0 | 2.6 | 0.00 | 1.04 | 1.04 | 95 | 1024.0 |
| 20260906004555 | 63 | 0 | 0.0 | 1.7 | 0.00 | 1.04 | 1.04 | 95 | 1024.1 |
| 20260906004037 | 63 | 0 | 0.0 | 1.7 | 0.00 | 1.04 | 1.04 | 94 | 1024.2 |
| 20260906003536 | 63 | 5 | 0.0 | 2.6 | 0.00 | 1.04 | 1.04 | 95 | 1024.2 |
| 20260906003101 | 63 | 140 | 0.0 | 2.6 | 0.00 | 1.04 | 1.04 | 95 | 1024.2 |
| 20260906002537 | 63 | 183 | 0.9 | 4.3 | 0.00 | 1.04 | 1.04 | 95 | 1024.0 |
| 20260906002037 | 63 | 0 | 0.0 | 4.3 | 0.00 | 1.04 | 1.04 | 95 | 1024.0 |
| 20260906001559 | 63 | 163 | 0.9 | 2.6 | 0.00 | 1.04 | 1.04 | 95 | 1023.9 |
| 20260906001038 | 63 | 0 | 0.0 | 4.3 | 0.00 | 1.04 | 1.04 | 96 | 1024.0 |
| 20260906000537 | 63 | 0 | 1.7 | 4.3 | 0.00 | 1.04 | 1.04 | 96 | 1023.9 |
| 20260906000058 | 64 | 128 | 0.9 | 4.3 | 0.00 | 1.04 | 1.04 | 96 | 1023.8 |
| 20260905235536 | 64 | 136 | 0.9 | 3.5 | 0.00 | 1.04 | 1.04 | 96 | 1023.8 |
| 20260905235036 | 64 | 0 | 0.9 | 3.5 | 0.00 | 1.04 | 1.04 | 96 | 1023.9 |
| 20260905234554 | 64 | 328 | 0.0 | 2.6 | 0.00 | 1.04 | 1.04 | 96 | 1023.8 |
| 20260905234037 | 64 | 0 | 0.0 | 3.5 | 0.00 | 1.04 | 1.04 | 96 | 1023.8 |
| 20260905233537 | 64 | 0 | 0.0 | 3.5 | 0.00 | 1.04 | 1.04 | 96 | 1023.7 |
| 20260905233116 | 64 | 0 | 0.0 | 1.7 | 0.00 | 1.04 | 1.04 | 95 | 1023.7 |
| 20260905232536 | 64 | 138 | 0.0 | 1.7 | 0.00 | 1.04 | 1.04 | 95 | 1023.8 |
| 20260905232035 | 64 | 138 | 0.0 | 2.6 | 0.00 | 1.04 | 1.04 | 96 | 1023.6 |
| 20260905231558 | 64 | 127 | 0.9 | 3.5 | 0.00 | 1.04 | 1.04 | 95 | 1023.6 |
| 20260905231038 | 64 | 65 | 0.9 | 3.5 | 0.00 | 1.04 | 1.04 | 95 | 1023.4 |
| 20260905230534 | 64 | 0 | 0.0 | 4.3 | 0.00 | 1.04 | 1.04 | 95 | 1023.4 |
| 20260905230059 | 65 | 349 | 0.0 | 4.3 | 0.00 | 1.04 | 1.04 | 95 | 1023.4 |
| 20260905225535 | 65 | 133 | 0.9 | 4.3 | 0.00 | 1.04 | 1.04 | 95 | 1023.3 |
| 20260905225034 | 65 | 215 | 1.7 | 3.5 | 0.00 | 1.04 | 1.04 | 95 | 1023.4 |
| 20260905224548 | 65 | 0 | 0.0 | 1.7 | 0.00 | 1.04 | 1.04 | 95 | 1023.4 |
| 20260905224035 | 65 | 334 | 0.0 | 4.3 | 0.00 | 1.04 | 1.04 | 95 | 1023.4 |
| 20260905223536 | 65 | 256 | 0.9 | 4.3 | 0.00 | 1.04 | 1.04 | 95 | 1023.4 |
| 20260905223057 | 64 | 0 | 1.7 | 4.3 | 0.00 | 1.04 | 1.04 | 96 | 1023.4 |
| 20260905222536 | 64 | 74 | 0.0 | 1.7 | 0.00 | 1.04 | 1.04 | 95 | 1023.4 |
| 20260905222035 | 64 | 30 | 0.0 | 2.6 | 0.00 | 1.04 | 1.04 | 95 | 1023.5 |
| 20260905221554 | 64 | 0 | 0.0 | 2.6 | 0.00 | 1.04 | 1.04 | 95 | 1023.6 |
| 20260905221034 | 64 | 0 | 0.0 | 3.5 | 0.00 | 1.04 | 1.04 | 94 | 1023.5 |
| 20260905220535 | 64 | 248 | 1.7 | 3.5 | 0.00 | 1.04 | 1.04 | 94 | 1023.5 |
| 20260905220051 | 64 | 0 | 0.9 | 3.5 | 0.00 | 1.04 | 1.04 | 94 | 1023.6 |
| 20260905215534 | 64 | 277 | 1.7 | 6.1 | 0.00 | 1.04 | 1.04 | 94 | 1023.6 |
| 20260905215036 | 64 | 267 | 1.7 | 6.1 | 0.00 | 1.04 | 1.04 | 94 | 1023.7 |
| 20260905214545 | 64 | 279 | 2.6 | 7.0 | 0.00 | 1.04 | 1.04 | 93 | 1023.8 |
| 20260905214035 | 64 | 298 | 1.7 | 7.0 | 0.00 | 1.04 | 1.04 | 93 | 1023.7 |
| 20260905213535 | 64 | 9 | 0.9 | 3.5 | 0.00 | 1.04 | 1.04 | 93 | 1023.7 |
| 20260905213100 | 64 | 0 | 0.0 | 2.6 | 0.00 | 1.04 | 1.04 | 94 | 1023.9 |
| 20260905212535 | 64 | 0 | 0.9 | 3.5 | 0.00 | 1.04 | 1.04 | 95 | 1024.0 |
| 20260905212040 | 64 | 269 | 0.9 | 3.5 | 0.00 | 1.04 | 1.04 | 95 | 1024.0 |
| 20260905211607 | 64 | 288 | 1.7 | 4.3 | 0.00 | 1.04 | 1.04 | 95 | 1024.0 |
| 20260905211034 | 63 | 246 | 1.7 | 4.3 | 0.00 | 1.04 | 1.04 | 96 | 1024.1 |
| 20260905210535 | 63 | 237 | 0.9 | 5.2 | 0.00 | 1.04 | 1.04 | 97 | 1024.2 |
| 20260905210112 | 63 | 268 | 0.9 | 6.1 | 0.00 | 1.04 | 1.04 | 97 | 1024.3 |
| 20260905205538 | 63 | 257 | 2.6 | 6.1 | 0.00 | 1.04 | 1.04 | 98 | 1024.4 |
| 20260905205035 | 62 | 267 | 1.7 | 3.5 | 0.00 | 1.04 | 1.04 | 98 | 1024.4 |
| 20260905204558 | 62 | 352 | 0.9 | 3.5 | 0.00 | 1.04 | 1.04 | 98 | 1024.5 |
| 20260905204034 | 62 | 259 | 0.9 | 3.5 | 0.00 | 1.04 | 1.04 | 98 | 1024.5 |
| 20260905203536 | 62 | 262 | 1.7 | 3.5 | 0.00 | 1.04 | 1.04 | 98 | 1024.4 |
| 20260905203055 | 61 | 265 | 1.7 | 2.6 | 0.00 | 1.04 | 1.04 | 98 | 1024.5 |
| 20260905202536 | 61 | 280 | 0.9 | 1.7 | 0.00 | 1.04 | 1.04 | 98 | 1024.4 |
| 20260905202036 | 61 | 280 | 0.0 | 1.7 | 0.00 | 1.04 | 1.04 | 98 | 1024.5 |
| 20260905201553 | 61 | 0 | 0.0 | 0.9 | 0.00 | 1.04 | 1.04 | 98 | 1024.5 |
| 20260905201037 | 60 | 0 | 0.0 | 0.9 | 0.00 | 1.04 | 1.04 | 98 | 1024.5 |
| 20260905200538 | 60 | 0 | 0.0 | 0.9 | 0.00 | 1.04 | 1.04 | 98 | 1024.5 |
| 20260905200055 | 60 | 0 | 0.0 | 1.7 | 0.00 | 1.04 | 1.04 | 97 | 1024.7 |
| 20260905195538 | 60 | 0 | 0.0 | 3.5 | 0.00 | 1.04 | 1.04 | 97 | 1024.7 |
| 20260905195036 | 60 | 0 | 0.9 | 3.5 | 0.01 | 1.04 | 1.04 | 97 | 1024.7 |
| 20260905194558 | 60 | 262 | 1.7 | 5.2 | 0.02 | 1.04 | 1.04 | 97 | 1024.7 |
| 20260905194037 | 60 | 282 | 2.6 | 5.2 | 0.04 | 1.04 | 1.04 | 97 | 1024.6 |
| 20260905193536 | 59 | 263 | 2.6 | 5.2 | 0.07 | 1.04 | 1.04 | 97 | 1024.5 |
| 20260905193055 | 59 | 265 | 2.6 | 5.2 | 0.10 | 1.04 | 1.04 | 97 | 1024.5 |
| 20260905192536 | 59 | 264 | 2.6 | 3.5 | 0.12 | 1.04 | 1.04 | 96 | 1024.4 |
| 20260905192037 | 60 | 262 | 1.7 | 3.5 | 0.13 | 1.04 | 1.04 | 96 | 1024.4 |
| 20260905191552 | 60 | 271 | 0.9 | 3.5 | 0.14 | 1.04 | 1.04 | 96 | 1024.3 |
| 20260905191036 | 61 | 273 | 1.7 | 3.5 | 0.14 | 1.04 | 1.04 | 95 | 1024.5 |
| 20260905190536 | 61 | 300 | 0.9 | 3.5 | 0.14 | 1.04 | 1.04 | 95 | 1024.4 |
| 20260905190058 | 62 | 312 | 0.9 | 3.5 | 0.14 | 1.04 | 1.04 | 96 | 1024.2 |
| 20260905185537 | 62 | 306 | 0.9 | 7.0 | 0.14 | 1.04 | 1.04 | 96 | 1024.7 |
| 20260905185036 | 62 | 326 | 1.7 | 7.0 | 0.13 | 1.03 | 1.03 | 96 | 1024.7 |
| 20260905184550 | 63 | 306 | 1.7 | 5.2 | 0.12 | 1.02 | 1.02 | 96 | 1024.9 |
| 20260905184036 | 63 | 182 | 1.7 | 14.8 | 0.09 | 0.99 | 0.99 | 95 | 1024.7 |
| 20260905183537 | 63 | 0 | 2.6 | 14.8 | 0.07 | 0.97 | 0.97 | 95 | 1024.8 |
| 20260905183115 | 64 | 240 | 3.5 | 14.8 | 0.04 | 0.94 | 0.94 | 95 | 1024.7 |
| 20260905182536 | 65 | 109 | 3.5 | 13.0 | 0.02 | 0.92 | 0.92 | 95 | 1024.9 |
| 20260905182036 | 66 | 352 | 1.7 | 7.0 | 0.09 | 0.91 | 0.91 | 97 | 1025.0 |
| 20260905181551 | 66 | 119 | 0.9 | 3.5 | 0.52 | 0.90 | 0.90 | 98 | 1024.8 |
| 20260905181036 | 65 | 0 | 0.9 | 4.3 | 0.76 | 0.90 | 0.90 | 98 | 1024.9 |
| 20260905180537 | 64 | 217 | 0.9 | 4.3 | 0.77 | 0.90 | 0.90 | 98 | 1025.1 |
| 20260905180050 | 64 | 0 | 0.9 | 2.6 | 0.81 | 0.90 | 0.90 | 98 | 1025.2 |
| 20260905175540 | 63 | 115 | 0.0 | 4.3 | 0.86 | 0.90 | 0.90 | 98 | 1025.3 |
| 20260905175036 | 62 | 165 | 0.0 | 4.3 | 0.87 | 0.90 | 0.90 | 98 | 1025.3 |
| 20260905174557 | 61 | 54 | 0.9 | 4.3 | 0.90 | 0.90 | 0.90 | 98 | 1025.4 |
| 20260905174036 | 60 | 65 | 0.0 | 4.3 | 0.90 | 0.90 | 0.90 | 97 | 1025.6 |
| 20260905173537 | 59 | 0 | 0.0 | 2.6 | 0.90 | 0.90 | 0.90 | 95 | 1025.9 |
| 20260905173054 | 59 | 44 | 0.9 | 8.7 | 0.90 | 0.90 | 0.90 | 94 | 1025.9 |
| 20260905172801 | 60 | 0 | 1.7 | 8.7 | 0.90 | 0.90 | 0.90 | 91 | 1026.0 |
| 20260905164036 | 67 | 0 | 0.0 | 1.7 | 0.00 | 0.00 | 0.00 | 91 | 1025.6 |
| 20260905163538 | 67 | 109 | 0.0 | 1.7 | 0.00 | 0.00 | 0.00 | 90 | 1025.7 |
| 20260905163056 | 68 | 152 | 0.0 | 1.7 | 0.00 | 0.00 | 0.00 | 91 | 1025.9 |
| 20260905162537 | 68 | 0 | 0.0 | 1.7 | 0.00 | 0.00 | 0.00 | 92 | 1026.2 |
| 20260905162047 | 68 | 0 | 0.0 | 1.7 | 0.00 | 0.00 | 0.00 | 91 | 1026.2 |
| 20260905161555 | 68 | 0 | 0.0 | 0.0 | 0.00 | 0.00 | 0.00 | 91 | 1026.3 |
| 20260905161036 | 68 | 0 | 0.0 | 0.0 | 0.00 | 0.00 | 0.00 | 91 | 1026.3 |
| 20260905160536 | 68 | 0 | 0.0 | 0.0 | 0.00 | 0.00 | 0.00 | 90 | 1026.1 |
| 20260905160048 | 69 | 0 | 0.0 | 0.0 | 0.00 | 0.00 | 0.00 | 90 | 1026.0 |
| 20260905155536 | 69 | 0 | 0.0 | 0.0 | 0.00 | 0.00 | 0.00 | 89 | 1026.0 |
| 20260905155035 | 69 | 0 | 0.0 | 0.0 | 0.00 | 0.00 | 0.00 | 89 | 1026.1 |
| 20260905154557 | 69 | 0 | 0.0 | 0.0 | 0.00 | 0.00 | 0.00 | 90 | 1026.1 |
| 20260905154037 | 69 | 0 | 0.0 | 0.9 | 0.00 | 0.00 | 0.00 | 89 | 1026.1 |
| 20260905153536 | 69 | 0 | 0.0 | 0.9 | 0.00 | 0.00 | 0.00 | 89 | 1026.1 |
| 20260905153107 | 69 | 0 | 0.0 | 0.9 | 0.00 | 0.00 | 0.00 | 88 | 1026.1 |
| 20260905152557 | 69 | 0 | 0.0 | 0.9 | 0.00 | 0.00 | 0.00 | 88 | 1026.0 |
| 20260905152037 | 69 | 0 | 0.0 | 1.7 | 0.00 | 0.00 | 0.00 | 89 | 1026.0 |
| 20260905151552 | 69 | 0 | 0.0 | 1.7 | 0.00 | 0.00 | 0.00 | 87 | 1025.9 |
| 20260905151035 | 68 | 218 | 0.0 | 3.5 | 0.00 | 0.00 | 0.00 | 87 | 1025.8 |
| 20260905150536 | 68 | 0 | 0.0 | 3.5 | 0.00 | 0.00 | 0.00 | 87 | 1025.9 |
| 20260905150047 | 68 | 0 | 0.9 | 3.5 | 0.00 | 0.00 | 0.00 | 87 | 1026.0 |
| 20260905145537 | 67 | 242 | 0.9 | 3.5 | 0.00 | 0.00 | 0.00 | 87 | 1026.0 |
| 20260905145038 | 67 | 259 | 0.9 | 1.7 | 0.00 | 0.00 | 0.00 | 87 | 1026.0 |
| 20260905144557 | 67 | 299 | 0.0 | 3.5 | 0.00 | 0.00 | 0.00 | 87 | 1026.0 |
| 20260905144036 | 67 | 327 | 0.0 | 3.5 | 0.00 | 0.00 | 0.00 | 87 | 1026.1 |
| 20260905143537 | 67 | 262 | 0.9 | 4.3 | 0.00 | 0.00 | 0.00 | 88 | 1026.2 |
| 20260905143056 | 67 | 202 | 0.9 | 4.3 | 0.00 | 0.00 | 0.00 | 88 | 1026.2 |
| 20260905142536 | 66 | 251 | 1.7 | 3.5 | 0.00 | 0.00 | 0.00 | 88 | 1026.2 |
| 20260905142036 | 66 | 139 | 0.0 | 3.5 | 0.00 | 0.00 | 0.00 | 89 | 1026.2 |
| 20260905141559 | 66 | 238 | 0.0 | 2.6 | 0.00 | 0.00 | 0.00 | 89 | 1026.2 |
| 20260905141040 | 66 | 159 | 0.9 | 5.2 | 0.00 | 0.00 | 0.00 | 89 | 1026.2 |
| 20260905140537 | 66 | 0 | 1.7 | 5.2 | 0.00 | 0.00 | 0.00 | 89 | 1026.2 |
| 20260905140046 | 66 | 264 | 1.7 | 5.2 | 0.00 | 0.00 | 0.00 | 89 | 1026.3 |
| 20260905135537 | 66 | 217 | 0.9 | 4.3 | 0.00 | 0.00 | 0.00 | 88 | 1026.2 |
| 20260905135037 | 66 | 252 | 0.9 | 2.6 | 0.00 | 0.00 | 0.00 | 89 | 1026.2 |
| 20260905134549 | 66 | 262 | 0.9 | 3.5 | 0.00 | 0.00 | 0.00 | 89 | 1026.3 |
| 20260905134038 | 66 | 242 | 0.9 | 5.2 | 0.00 | 0.00 | 0.00 | 89 | 1026.3 |
| 20260905133538 | 66 | 237 | 1.7 | 5.2 | 0.00 | 0.00 | 0.00 | 89 | 1026.4 |
| 20260905133055 | 65 | 265 | 1.7 | 5.2 | 0.00 | 0.00 | 0.00 | 89 | 1026.3 |
| 20260905132536 | 65 | 200 | 1.7 | 5.2 | 0.00 | 0.00 | 0.00 | 89 | 1026.2 |
| 20260905132040 | 65 | 284 | 0.9 | 4.3 | 0.00 | 0.00 | 0.00 | 89 | 1026.3 |
| 20260905131613 | 65 | 301 | 1.7 | 4.3 | 0.00 | 0.00 | 0.00 | 89 | 1026.3 |
| 20260905131036 | 65 | 132 | 0.9 | 3.5 | 0.00 | 0.00 | 0.00 | 89 | 1026.4 |
| 20260905130537 | 65 | 300 | 1.7 | 3.5 | 0.00 | 0.00 | 0.00 | 88 | 1026.4 |
| 20260905130100 | 65 | 300 | 1.7 | 5.2 | 0.00 | 0.00 | 0.00 | 88 | 1026.5 |
| 20260905125536 | 65 | 0 | 1.7 | 6.1 | 0.00 | 0.00 | 0.00 | 88 | 1026.5 |
| 20260905125037 | 65 | 340 | 1.7 | 7.8 | 0.00 | 0.00 | 0.00 | 88 | 1026.5 |
| 20260905124558 | 65 | 233 | 2.6 | 7.8 | 0.00 | 0.00 | 0.00 | 89 | 1026.5 |
| 20260905124037 | 65 | 275 | 1.7 | 3.5 | 0.00 | 0.00 | 0.00 | 89 | 1026.4 |
| 20260905123537 | 65 | 284 | 1.7 | 3.5 | 0.00 | 0.00 | 0.00 | 89 | 1026.4 |
| 20260905123056 | 65 | 269 | 1.7 | 3.5 | 0.00 | 0.00 | 0.00 | 90 | 1026.4 |
| 20260905122537 | 65 | 273 | 1.7 | 3.5 | 0.00 | 0.00 | 0.00 | 90 | 1026.3 |
| 20260905122036 | 65 | 292 | 1.7 | 2.6 | 0.00 | 0.00 | 0.00 | 90 | 1026.1 |
| 20260905121548 | 64 | 285 | 1.7 | 3.5 | 0.00 | 0.00 | 0.00 | 90 | 1026.2 |
| 20260905121036 | 64 | 274 | 1.7 | 3.5 | 0.00 | 0.00 | 0.00 | 90 | 1026.2 |
| 20260905120537 | 64 | 277 | 0.9 | 2.6 | 0.00 | 0.00 | 0.00 | 89 | 1026.2 |
| 20260905120046 | 64 | 273 | 1.7 | 2.6 | 0.00 | 0.00 | 0.00 | 89 | 1026.1 |
| 20260905115538 | 64 | 273 | 0.9 | 2.6 | 0.00 | 0.00 | 0.00 | 89 | 1026.1 |
| 20260905115036 | 64 | 273 | 0.9 | 2.6 | 0.00 | 0.00 | 0.00 | 89 | 1026.0 |
| 20260905114556 | 65 | 273 | 0.9 | 2.6 | 0.00 | 0.00 | 0.00 | 88 | 1026.0 |
| 20260905114039 | 65 | 273 | 0.9 | 2.6 | 0.00 | 0.00 | 0.00 | 88 | 1026.0 |
| 20260905113536 | 65 | 273 | 0.9 | 3.5 | 0.00 | 0.00 | 0.00 | 87 | 1025.9 |
| 20260905113050 | 65 | 301 | 0.9 | 3.5 | 0.00 | 0.00 | 0.00 | 86 | 1025.8 |
| 20260905112537 | 65 | 255 | 0.9 | 5.2 | 0.00 | 0.00 | 0.00 | 86 | 1025.7 |
| 20260905112037 | 65 | 271 | 0.9 | 5.2 | 0.00 | 0.00 | 0.00 | 86 | 1025.6 |
| 20260905111548 | 65 | 248 | 0.9 | 4.3 | 0.00 | 0.00 | 0.00 | 85 | 1025.6 |
| 20260905111037 | 65 | 28 | 0.9 | 2.6 | 0.00 | 0.00 | 0.00 | 85 | 1025.6 |
| 20260905110536 | 64 | 302 | 0.9 | 2.6 | 0.00 | 0.00 | 0.00 | 85 | 1025.4 |
| 20260905110044 | 64 | 293 | 0.9 | 2.6 | 0.00 | 0.00 | 0.00 | 86 | 1025.4 |
| 20260905105537 | 64 | 293 | 0.9 | 2.6 | 0.00 | 0.00 | 0.00 | 87 | 1025.2 |
| 20260905105037 | 64 | 293 | 0.9 | 2.6 | 0.00 | 0.00 | 0.00 | 87 | 1025.2 |
| 20260905104557 | 64 | 293 | 0.9 | 2.6 | 0.00 | 0.00 | 0.00 | 87 | 1025.2 |
| 20260905104036 | 64 | 290 | 1.7 | 2.6 | 0.00 | 0.00 | 0.00 | 88 | 1025.1 |
| 20260905103540 | 64 | 290 | 1.7 | 2.6 | 0.00 | 0.00 | 0.00 | 88 | 1025.1 |
| 20260905103054 | 64 | 290 | 1.7 | 2.6 | 0.00 | 0.00 | 0.00 | 89 | 1025.1 |
| 20260905102536 | 64 | 290 | 0.9 | 2.6 | 0.00 | 0.00 | 0.00 | 89 | 1025.0 |
| 20260905102037 | 64 | 290 | 1.7 | 2.6 | 0.00 | 0.00 | 0.00 | 89 | 1025.0 |
| 20260905101600 | 64 | 290 | 0.9 | 2.6 | 0.00 | 0.00 | 0.00 | 90 | 1025.1 |
| 20260905101036 | 64 | 290 | 0.9 | 2.6 | 0.00 | 0.00 | 0.00 | 90 | 1025.1 |
| 20260905100536 | 64 | 290 | 0.9 | 2.6 | 0.00 | 0.00 | 0.00 | 90 | 1025.0 |
| 20260905100057 | 64 | 290 | 0.9 | 2.6 | 0.00 | 0.00 | 0.00 | 90 | 1025.1 |
| 20260905095537 | 64 | 290 | 0.9 | 2.6 | 0.00 | 0.00 | 0.00 | 90 | 1024.9 |
| 20260905095036 | 64 | 290 | 0.9 | 2.6 | 0.00 | 0.00 | 0.00 | 91 | 1025.0 |
| 20260905094558 | 64 | 290 | 0.9 | 2.6 | 0.00 | 0.00 | 0.00 | 91 | 1025.0 |
| 20260905094036 | 64 | 290 | 0.9 | 2.6 | 0.00 | 0.00 | 0.00 | 91 | 1025.1 |
| 20260905093539 | 64 | 290 | 0.9 | 2.6 | 0.00 | 0.00 | 0.00 | 91 | 1025.1 |
| 20260905093051 | 64 | 290 | 0.9 | 2.6 | 0.00 | 0.00 | 0.00 | 91 | 1025.0 |
| 20260905092538 | 64 | 290 | 0.9 | 2.6 | 0.00 | 0.00 | 0.00 | 91 | 1025.0 |
| 20260905092036 | 64 | 289 | 0.9 | 2.6 | 0.00 | 0.00 | 0.00 | 91 | 1025.1 |
| 20260905091559 | 64 | 293 | 0.9 | 2.6 | 0.00 | 0.00 | 0.00 | 92 | 1025.1 |
| 20260905091036 | 64 | 288 | 1.7 | 2.6 | 0.00 | 0.00 | 0.00 | 92 | 1025.1 |
| 20260905090536 | 64 | 301 | 0.9 | 2.6 | 0.00 | 0.00 | 0.00 | 92 | 1025.1 |